Location: Freiburg+im+Breisgau
(48.0359°N, 7.8195°E)
Time: 10:51:48
(UTC+02:00)

OTV 5 (USA 277) - Visible Passes

Search period start: 22 June 2018 00:00
Search period end: 02 July 2018 00:00
Orbit: 313 x 320 km, 54.5° (Epoch: 21 June)

Date Brightness Start Highest point End Pass type
(mag) Time Alt. Az. Time Alt. Az. Time Alt. Az.
22 Jun ? 01:13:59 10° NW 01:16:27 30° NNE 01:18:43 11° E visible
22 Jun ? 02:48:14 10° WNW 02:49:30 23° W 02:49:30 23° W visible
22 Jun ? 22:19:01 10° WNW 22:21:22 25° NNW 22:23:43 10° NE visible
22 Jun ? 23:54:07 10° NW 23:56:16 21° N 23:58:26 10° ENE visible
23 Jun ? 01:28:20 10° NW 01:31:00 53° NNE 01:31:25 46° ENE visible
23 Jun ? 22:33:52 10° WNW 22:36:01 21° N 22:38:10 10° NE visible
24 Jun ? 00:08:34 10° NW 00:10:55 25° NNE 00:13:16 10° ENE visible
24 Jun ? 01:42:44 10° WNW 01:44:25 33° WNW 01:44:25 33° WNW visible
24 Jun ? 22:48:35 10° NW 22:50:42 20° N 22:52:48 10° NE visible
25 Jun ? 00:22:56 10° NW 00:25:30 38° NNE 00:26:46 23° ENE visible
25 Jun ? 01:57:21 10° WNW 01:57:36 12° W 01:57:36 12° W visible
25 Jun ? 23:03:08 10° NW 23:05:22 22° N 23:07:36 10° ENE visible
26 Jun ? 00:37:17 10° WNW 00:40:00 76° NNE 00:40:04 75° NE visible
26 Jun ? 23:17:31 10° NW 23:20:00 30° NNE 23:22:27 10° E visible
27 Jun ? 00:51:46 10° WNW 00:53:26 30° W 00:53:26 30° W visible
27 Jun ? 23:31:52 10° NW 23:34:32 51° NNE 23:36:02 22° E visible
28 Jun ? 01:06:35 10° W 01:06:52 12° W 01:06:52 12° W visible
28 Jun ? 22:12:07 10° NW 22:14:27 25° NNE 22:16:47 10° ENE visible
28 Jun ? 23:46:16 10° WNW 23:48:58 72° SSW 23:49:31 50° SSE visible
29 Jun ? 22:26:28 10° NW 22:29:02 38° NNE 22:31:36 10° E visible
30 Jun ? 00:00:53 10° WNW 00:03:04 29° SW 00:03:04 29° SW visible
30 Jun ? 22:40:50 10° WNW 22:43:32 74° NNE 22:45:48 14° ESE visible
01 Jul ? 00:16:05 10° WSW 00:16:39 12° WSW 00:16:39 12° WSW visible
01 Jul ? 22:55:18 10° WNW 22:57:55 46° SW 22:59:26 21° SSE visible
